Regional Weather Roundup
Issued by NWS

Home | Current Version | Previous Version | Graphics & Text | Print | Product List | Glossary On
Versions: 1 2 3 4 5 6 7 8 9 10 11 12 13 14 15 16 17 18 19 20 21 22 23 24 25 26 27 28 29 30 31 32 33 34 35 36 37 38 39 40 41 42 43 44 45 46 47 48 49 50
000
ASUS43 KLMK 061910
RWRKY
KENTUCKY REGIONAL WEATHER ROUNDUP
NATIONAL WEATHER SERVICE LOUISVILLE KY
200 PM EST SAT FEB 06 2016

NOTE "FAIR" INDICATES FEW OR NO CLOUDS BELOW 12,000 FEET
WITH NO SIGNIFICANT WEATHER AND/OR OBSTRUCTIONS TO VISIBILITY.

KYZ001>023-026-027-061>063-070>075-062000-
WESTERN AND SOUTH CENTRAL KENTUCKY

CITY           SKY/WX    TMP DP  RH WIND       PRES   REMARKS
PADUCAH        SUNNY     55  21  26 W10       30.30F
HENDERSON      SUNNY     52  27  37 CALM      30.29F
OWENSBORO      SUNNY     50  29  44 SW7       30.30F
HOPKINSVILLE   CLOUDY    51  22  31 SW6       30.30F
BOWLING GREEN  SUNNY     53  22  29 SW10G17   30.31F
GLASGOW        SUNNY     51  22  31 W10G17    30.31F
$$

KYZ024-025-028>034-038-045-046-053-062000-
NORTH CENTRAL KENTUCKY

CITY           SKY/WX    TMP DP  RH WIND       PRES   REMARKS
LOUISVILLE/SDF MOSUNNY   50  23  34 NW7       30.29F
LOUISVILLE/LOU MOSUNNY   48  24  39 W7        30.30F
FORT KNOX      MOSUNNY   51  26  37 SW7       30.27F
$$

KYZ035>037-039>044-047>052-055>060-089>105-062000-
NORTHEAST KENTUCKY

CITY           SKY/WX    TMP DP  RH WIND       PRES   REMARKS
LEXINGTON      SUNNY     49  23  36 W8        30.28F
COVINGTON      PTSUNNY   43  23  45 W7        30.27F
FRANKFORT      SUNNY     47  22  37 SW8       30.28F
$$

KYZ054-064>069-076>088-106>120-062000-
SOUTHEAST KENTUCKY

CITY           SKY/WX    TMP DP  RH WIND       PRES   REMARKS
JACKSON        SUNNY     50  21  32 SW8       30.27F
LONDON         MOSUNNY   47  18  31 W6        30.29F
SOMERSET       SUNNY     45  19  36 W8        30.32F
MIDDLESBORO    CLOUDY    44  21  39 S3        30.32F
MONTICELLO     CLOUDY    48  20  32 W8        30.32F
$$




USA.gov is the U.S. government's official web portal to all federal, state and local government web resources and services.